Weather History for Szolnok, Hungary

Change the Weather History Date:

Saturday, June 22, 2013

  Actual Average (LHBP) Record (LHBP)
Temperature  
Mean Temperature 82 °F -  
Max Temperature 95 °F 77 °F 96 °F (2000)
Min Temperature 68 °F 55 °F 46 °F (2003)
Cooling Degree Days 16    
Growing Degree Days 32 (Base 50)    
Moisture  
Dew Point 66 °F    
Average Humidity 66    
Maximum Humidity 94    
Minimum Humidity 32    
Precipitation  
Precipitation 0.00 in - - ()
Sea Level Pressure  
Sea Level Pressure 29.90 in    
Wind  
Wind Speed 5 mph ()    
Max Wind Speed 34 mph    
Max Gust Speed 63 mph    
Visibility 5.4 miles    
Events Rain , Hail , Thunderstorm    
Averages and records for this station are not official NWS values.
T = Trace of Precipitation, MM = Missing Value Source: Averaged Metar Reports

Daily Weather History Graph

Daily Weather History Graph

Search for Another Location

Airport:

Trip Planner

Search our weather history database for the weather conditions in past years. The results will help you decide how hot, cold, wet, or windy it might be!

Date:

Astronomy

Jun. 22, 2013 Rise Set
Actual Time 4:43 AM CEST 8:38 PM CEST
Civil Twilight 4:03 AM CEST 9:18 PM CEST
Nautical Twilight 3:08 AM CEST 10:13 PM CEST
Astronomical Twilight 1:44 AM CEST 11:37 PM CEST
Moon 7:29 PM CEST (6/22) 3:42 AM CEST (6/22)
Length of Visible Light 17h 15m
Length of Day
15h 54m
Waxing Gibbous, 98% of the Moon is Illuminated
Jun 22
Waxing Gibbous
Jun 23
Full
Jun 30
Last Quarter
Jul 8
New
Jul 16
First Quarter

Hourly Weather History & Observations

Time (CEST) Temp. Heat Index Dew Point Humidity Pressure Visibility Wind Dir Wind Speed Gust Speed Precip Events Conditions
12:15 AM 77.0 °F - 69.8 °F 78% 29.92 in - Variable 2.2 mph - N/A   Clear
12:45 AM 77.0 °F - 69.8 °F 78% 29.92 in - Variable 2.2 mph - N/A   Clear
1:15 AM 77.0 °F - 68.0 °F 74% 29.92 in - Variable 4.5 mph - N/A   Clear
1:45 AM 77.0 °F - 66.2 °F 69% 29.92 in - Variable 4.5 mph - N/A   Clear
2:15 AM 75.2 °F - 66.2 °F 73% 29.92 in - WNW 4.5 mph - N/A   Clear
2:45 AM 75.2 °F - 68.0 °F 78% 29.92 in - WNW 4.5 mph - N/A   Clear
3:15 AM 73.4 °F - 68.0 °F 83% 29.92 in - WNW 4.5 mph - N/A   Clear
3:45 AM - - - N/A% - 6.2 mi Variable 4.5 mph - N/A   Clear
4:15 AM 71.6 °F - 66.2 °F 83% 29.92 in - North 2.2 mph - N/A   Clear
4:45 AM 71.6 °F - 68.0 °F 88% 29.92 in - North 2.2 mph - N/A   Clear
5:15 AM 69.8 °F - 68.0 °F 94% 29.92 in - Calm Calm - N/A   Clear
5:45 AM 71.6 °F - 68.0 °F 88% 29.92 in - Calm Calm - N/A   Clear
6:15 AM 75.2 °F - 69.8 °F 83% 29.92 in - Variable 2.2 mph - N/A   Clear
6:45 AM - - - N/A% - 6.2 mi Variable 4.5 mph - N/A   Clear
7:15 AM 78.8 °F - 68.0 °F 69% 29.92 in - Calm Calm - N/A   Clear
7:45 AM 80.6 °F 83.9 °F 69.8 °F 70% 29.92 in - Calm Calm - N/A   Clear
8:15 AM 80.6 °F 84.6 °F 71.6 °F 74% 29.92 in - Variable 2.2 mph - N/A   Clear
8:45 AM 84.2 °F 88.4 °F 69.8 °F 62% 29.92 in - SW 2.2 mph - N/A   Clear
9:15 AM 86.0 °F 89.4 °F 68.0 °F 55% 29.92 in 6.2 mi West 2.2 mph - N/A   Partly Cloudy
9:45 AM - - - N/A% - 6.2 mi Variable 4.5 mph - N/A   Clear
10:15 AM 89.6 °F 93.4 °F 68.0 °F 49% 29.92 in - NW 2.2 mph - N/A   Clear
10:45 AM 89.6 °F 91.1 °F 64.4 °F 43% 29.92 in 6.2 mi North 2.2 mph - N/A   Partly Cloudy
11:15 AM 91.4 °F 94.0 °F 66.2 °F 43% 29.92 in 6.2 mi Calm Calm - N/A   Partly Cloudy
11:45 AM 91.4 °F 92.1 °F 62.6 °F 38% 29.92 in 6.2 mi Variable 2.2 mph - N/A   Partly Cloudy
12:15 PM 91.4 °F 94.0 °F 66.2 °F 43% 29.92 in 6.2 mi SSE 2.2 mph - N/A   Partly Cloudy
12:45 PM - - - N/A% - 1.9 mi Variable 4.5 mph - N/A Rain , Thunderstorm Rain Showers
1:15 PM 93.2 °F 93.3 °F 60.8 °F 34% 29.89 in 6.2 mi SSW 6.7 mph - N/A   Scattered Clouds
1:45 PM 93.2 °F 94.9 °F 64.4 °F 38% 29.89 in 6.2 mi SSW 8.9 mph - N/A   Scattered Clouds
2:15 PM 95.0 °F 96.0 °F 62.6 °F 34% 29.86 in 6.2 mi West 8.9 mph - N/A   Scattered Clouds
2:45 PM 95.0 °F 95.2 °F 60.8 °F 32% 29.86 in 6.2 mi WSW 8.9 mph - N/A   Scattered Clouds
3:15 PM 95.0 °F 95.2 °F 60.8 °F 32% 29.83 in 6.2 mi WSW 11.2 mph - N/A   Scattered Clouds
3:45 PM - - - N/A% - 1.9 mi Variable 4.5 mph - N/A Rain , Thunderstorm Rain Showers
4:13 PM 93.2 °F 94.1 °F 62.6 °F 36% 29.86 in 6.2 mi NNW 13.4 mph 26.8 mph N/A   Scattered Clouds
4:15 PM 87.8 °F 90.4 °F 66.2 °F 49% 29.86 in 6.2 mi NNE 15.7 mph 33.6 mph N/A   Scattered Clouds
4:45 PM 80.6 °F 82.3 °F 64.4 °F 58% 29.86 in 6.2 mi NNE 11.2 mph 31.3 mph N/A   Scattered Clouds
5:15 PM 80.6 °F 82.3 °F 64.4 °F 58% 29.86 in 6.2 mi ENE 15.7 mph - N/A   Scattered Clouds
5:45 PM 78.8 °F - 64.4 °F 61% 29.86 in 6.2 mi East 13.4 mph 29.1 mph N/A   Scattered Clouds
6:15 PM 78.8 °F - 64.4 °F 61% 29.86 in 6.2 mi East 13.4 mph - N/A   Mostly Cloudy
6:45 PM - - - N/A% - 1.9 mi Variable 4.5 mph - N/A Rain , Thunderstorm Rain Showers
7:15 PM 77.0 °F - 66.2 °F 69% 29.89 in 6.2 mi ESE 6.7 mph - N/A   Mostly Cloudy
7:45 PM 75.2 °F - 64.4 °F 69% 29.89 in 6.2 mi ESE 8.9 mph - N/A   Mostly Cloudy
8:15 PM 73.4 °F - 66.2 °F 78% 29.86 in 6.2 mi SE 4.5 mph - N/A   Mostly Cloudy
8:45 PM 73.4 °F - 66.2 °F 78% 29.89 in 6.2 mi ESE 8.9 mph - N/A   Mostly Cloudy
9:15 PM 71.6 °F - 64.4 °F 78% 29.89 in 6.2 mi ENE 6.7 mph - N/A   Mostly Cloudy
9:45 PM - - - N/A% - 6.2 mi Variable 4.5 mph - N/A   Mostly Cloudy
9:56 PM 69.8 °F - 64.4 °F 83% 29.89 in 6.2 mi ESE 6.7 mph - N/A Thunderstorm Thunderstorm
10:04 PM 71.6 °F - 64.4 °F 78% 29.95 in 6.2 mi West 13.4 mph 26.8 mph N/A Thunderstorm Thunderstorm
10:11 PM 73.4 °F - 64.4 °F 73% 29.95 in 3.1 mi WNW 13.4 mph 31.3 mph N/A Rain , Thunderstorm Thunderstorms and Rain
10:15 PM 68.0 °F - 62.6 °F 83% 29.95 in 1.2 mi WNW 20.1 mph 38.0 mph N/A Rain , Thunderstorm Thunderstorms and Rain
10:19 PM 68.0 °F - 64.4 °F 88% 29.92 in 0.4 mi NW 24.6 mph 62.6 mph N/A Rain , Hail , Thunderstorm Heavy Thunderstorms and Rain
10:34 PM 68.0 °F - 60.8 °F 78% 29.89 in 1.9 mi North 33.6 mph 51.5 mph N/A Rain , Thunderstorm Thunderstorms and Rain
10:45 PM - - - N/A% - 6.2 mi Variable 4.5 mph - N/A   Mostly Cloudy
11:15 PM 69.8 °F - 62.6 °F 78% 29.86 in 6.2 mi ENE 6.7 mph - N/A Thunderstorm Thunderstorm
11:45 PM 68.0 °F - 64.4 °F 88% 29.89 in 6.2 mi East 6.7 mph 20.1 mph N/A Thunderstorm Thunderstorm